This is the latest recevied weather packets stored in our database for station/object EA5JUX. If no packets are shown the sender has not sent any weather packets the latest 1 day(s).
| Time | Temp. | Humidity | Pressure | Rain* | Wind** | Luminosity | Snow |
|---|---|---|---|---|---|---|---|
| 1836274762 | 25° C | 82% | 1019.2 hPa | 0 mm | 1.79 m/s, 68° | - | - |
| 1836274462 | 25° C | 81% | 1019.4 hPa | 0 mm | 1.79 m/s, 45° | - | - |
| 1836274311 | 25° C | 81% | 1019.4 hPa | 0 mm | 1.79 m/s, 68° | - | - |
| 1836274161 | 25° C | 81% | 1019.4 hPa | 0 mm | 2.68 m/s, 45° | - | - |
| 1778054237 | 20° C | 75% | 1009.9 hPa | 0 mm | 2.68 m/s, 45° | - | - |
| 1778053937 | 20° C | 75% | 1009.9 hPa | 0 mm | 1.34 m/s, 45° | - | - |
| 1778053653 | 20° C | 75% | 1010.1 hPa | 0 mm | 3.13 m/s, 68° | - | - |
| 1778053337 | 20° C | 75% | 1010 hPa | 0 mm | 2.24 m/s, 68° | - | - |
| 1778053037 | 20° C | 75% | 1010.2 hPa | 0 mm | 3.13 m/s, 90° | - | - |
| 1778052754 | 20° C | 74% | 1010.2 hPa | 0 mm | 3.13 m/s, 68° | - | - |
| 1778052437 | 20° C | 75% | 1010.1 hPa | 0 mm | 2.68 m/s, 68° | - | - |
| 1778052137 | 20° C | 74% | 1010.1 hPa | 0 mm | 2.24 m/s, 68° | - | - |
| 1778051837 | 20° C | 75% | 1010.1 hPa | 0 mm | 2.24 m/s, 68° | - | - |
| 1778051537 | 19.44° C | 76% | 1010 hPa | 0 mm | 1.79 m/s, 90° | - | - |
| 1778051237 | 19.44° C | 76% | 1010.2 hPa | 0 mm | 3.58 m/s, 68° | - | - |
| 1778050937 | 19.44° C | 76% | 1010.1 hPa | 0 mm | 1.79 m/s, 68° | - | - |
| 1778050637 | 19.44° C | 76% | 1010.1 hPa | 0 mm | 3.13 m/s, 68° | - | - |
| 1778050337 | 19.44° C | 76% | 1010 hPa | 0 mm | 3.13 m/s, 68° | - | - |
| 1778050037 | 19.44° C | 75% | 1010.1 hPa | 0 mm | 3.13 m/s, 90° | - | - |
| 1778049737 | 19.44° C | 75% | 1009.9 hPa | 0 mm | 3.58 m/s, 68° | - | - |
| 1778049437 | 19.44° C | 76% | 1009.8 hPa | 0 mm | 2.24 m/s, 45° | - | - |
| 1778049137 | 19.44° C | 77% | 1009.8 hPa | 0 mm | 3.13 m/s, 68° | - | - |
| 1778048837 | 18.89° C | 78% | 1009.8 hPa | 0 mm | 2.68 m/s, 90° | - | - |
| 1778048537 | 18.89° C | 79% | 1009.8 hPa | 0 mm | 3.13 m/s, 68° | - | - |
| 1778048237 | 18.89° C | 79% | 1009.9 hPa | 0 mm | 3.58 m/s, 45° | - | - |
* Rain latest hour (hover to see other rain measurements)
** Current wind speed in m/s (hover to see current wind gust speed)